Location: Tel Aviv
(32.0670°N, 34.7670°E)
Time: 21:11:20
(UTC+02:00)

CUTE-I - Pass Details

Date: 22 December 2025
Orbit: 805 x 817 km, 98.7° (Epoch: 21 January)

Event Time Altitude Azimuth Distance (km) Brightness Sun altitude
Rises 06:01:59 0° 11° (NNE) 3,347 ? -7.8°
Reaches altitude 10° 06:04:19 10° 11° (NNE) 2,412 ? -7.3°
Maximum altitude 06:09:40 85° 284° (WNW) 825 ? -6.3°
Drops below altitude 10° 06:15:00 10° 196° (SSW) 2,400 ? -5.2°
Sets 06:17:20 0° 196° (SSW) 3,328 ? -4.8°
